星链-2631 (STARLINK-2631 )

导读 | 豆包AI

STARLINK-2631是美国SpaceX公司星链(Starlink)项目的卫星,于北京时间2021年5月4日发射升空,属于星链第25批次组网卫星。作为低轨互联网星座的组成部分,它主要为全球提供高速、低延迟的宽带互联网服务。该星序号为48366,按预测已于2025年8月19日再入大气层完成报废陨落。

基本信息
目录编号:
48366
目录名称:
STARLINK-2631
国际标识:
2021-038P
轨道中心:
EARTH
卫星名称:
星链-2631
卫星全名:
星链-2631 (STARLINK-2631 )
卫星状态:
已陨落 最后检测时间 2025-08-19
发射日期:
2021-05-04 UTC
国别 :
美国 (US)
星等 :
--
轨道信息
数据来源 国际轨道数据
星历时间: 2025-08-19T13:56:15+0800
轨道信息已过期207天
半长轴: 6542.101km
偏心率: 0.0007394
轨道倾角: 53.031°
近地点辐角 253.894°
升交点赤经 142.282°
平近点角 250.080°
近地点: 159.128km
远地点: 168.804km
周期: 87.768分钟
每日圈数: 16.406917
详细信息
固有亮度:
5
最大亮度:
2.5
卫星平台:
Starlink V1.0
覆盖范围:
全球
运营商:
太空探索技术公司
运营商所在国:
美国
制造商(研发单位):
太空探索技术公司
制造商所在国:
美国
使用方式:
暂无
卫星简介
星链(Starlink)计划是由太空探索技术公司(SpaceX)提出的一个巨型低轨卫星互联网星座项目,计划在2019年至2024年间在太空搭建由约1.2万颗卫星组成的“星链”网络,其中1584颗将部署在地球上空550千米处的近地轨道,并从2020年开始工作。该卫星仍在工作。